Hourly Data Report for June 17, 2018

LONDON CS
ONTARIO
Current Station Operator: ECCC - MSC

43°02'00.000" N
81°09'00.000" W
278.00 m
6144478
71622
WSN

Download Data

Hourly Data (June 2018)
Hourly Data Report for June 17, 2018
TIME Temp Definition
°C
Dew Point Definition
°C
Rel Hum Definition
%
Wind Dir Definition
10's deg

Wind Spd Definition
km/h
Visibility Definition
km
Stn Press Definition
kPa
Hmdx Definition


Wind Chill Definition


Weather Definition


00:00 17.3 14.9 86 LegendMM LegendMM   98.45     LegendNANA
01:00 17.5 15.2 86 LegendMM LegendMM   98.43     LegendNANA
02:00 16.6 14.9 90 LegendMM LegendMM   98.36     LegendNANA
03:00 15.8 14.6 92 LegendMM LegendMM   98.39     LegendNANA
04:00 15.7 14.2 91 LegendMM LegendMM   98.45     LegendNANA
05:00 14.9 13.7 92 LegendMM LegendMM   98.53     LegendNANA
06:00 18.0 15.8 87 LegendMM LegendMM   98.54     LegendNANA
07:00 20.7 16.8 79 LegendMM LegendMM   98.55 26   LegendNANA
08:00 23.2 18.1 73 LegendMM LegendMM   98.61 29   LegendNANA
09:00 25.3 19.3 70 LegendMM LegendMM   98.58 32   LegendNANA
10:00 27.0 19.0 62 LegendMM LegendMM   98.58 34   LegendNANA
11:00 28.6 20.3 61 LegendMM LegendMM   98.60 36   LegendNANA
12:00 29.0 20.1 59 LegendMM LegendMM   98.55 37   LegendNANA
13:00 29.8 20.2 57 LegendMM LegendMM   98.50 38   LegendNANA
14:00 29.7 20.1 56 LegendMM LegendMM   98.45 37   LegendNANA
15:00 29.6 20.0 56 LegendMM LegendMM   98.43 37   LegendNANA
16:00 30.0 19.7 54 LegendMM LegendMM   98.38 37   LegendNANA
17:00 29.7 19.4 54 LegendMM LegendMM   98.35 37   LegendNANA
18:00 29.1 20.3 59 LegendMM LegendMM   98.30 37   LegendNANA
19:00 27.9 20.6 64 LegendMM LegendMM   98.26 36   LegendNANA
20:00 26.7 20.5 69 LegendMM LegendMM   98.23 35   LegendNANA
21:00 25.6 20.3 73 LegendMM LegendMM   98.26 33   LegendNANA
22:00 24.8 20.4 77 LegendMM LegendMM   98.28 33   LegendNANA
23:00 24.9 20.2 75 LegendMM LegendMM   98.28 33   LegendNANA

Notes on Data Quality.

Legend

  • E = Estimated
  • M = Missing
  • NA = Not Available*
  • [empty] = Indicates an unobserved value
Date modified: